Time,TemperatureF,DewpointF,PressureIn,WindDirection,WindDirectionDegrees,WindSpeedMPH,WindSpeedGustMPH,Humidity,HourlyPrecipIn,Conditions,Clouds,dailyrainin,SoftwareType,DateUTC
2013-05-24 00:02:00,42.0,35.0,30.28,NNE,16,0.0,7.0,77,0.00,,,0.05,,2013-05-24 05:02:00,
2013-05-24 00:12:00,42.0,35.0,30.28,NNE,16,0.0,7.0,77,0.00,,,0.05,,2013-05-24 05:12:00,
2013-05-24 00:22:00,42.0,35.0,30.29,NNE,30,1.0,7.0,76,0.00,,,0.05,,2013-05-24 05:22:00,
2013-05-24 00:32:00,42.0,35.0,30.29,North,9,2.0,5.0,76,0.00,,,0.05,,2013-05-24 05:32:00,
2013-05-24 00:42:00,42.0,35.0,30.29,North,9,2.0,5.0,76,0.00,,,0.05,,2013-05-24 05:42:00,
2013-05-24 00:52:00,42.0,34.0,30.30,NNE,33,1.0,5.0,74,0.00,,,0.05,,2013-05-24 05:52:00,
2013-05-24 01:02:00,42.0,35.0,30.29,NE,55,2.0,5.0,75,0.00,,,0.05,,2013-05-24 06:02:00,
2013-05-24 01:12:00,42.0,35.0,30.29,NE,55,2.0,5.0,75,0.00,,,0.05,,2013-05-24 06:12:00,
2013-05-24 01:21:00,42.0,35.0,30.29,NE,55,2.0,5.0,75,0.00,,,0.05,,2013-05-24 06:21:00,
2013-05-24 01:32:00,42.0,35.0,30.30,ENE,76,2.0,8.0,77,0.00,,,0.05,,2013-05-24 06:32:00,
2013-05-24 01:41:00,42.0,35.0,30.30,ENE,76,2.0,8.0,77,0.00,,,0.05,,2013-05-24 06:41:00,
2013-05-24 01:52:00,41.0,34.0,30.29,NNE,17,1.0,5.0,77,0.00,,,0.05,,2013-05-24 06:52:00,
2013-05-24 02:01:00,41.0,34.0,30.29,NNE,32,1.0,5.0,77,0.00,,,0.05,,2013-05-24 07:01:00,
2013-05-24 02:11:00,41.0,34.0,30.29,NNE,32,1.0,5.0,77,0.00,,,0.05,,2013-05-24 07:11:00,
2013-05-24 02:22:00,41.0,34.0,30.29,NNE,32,1.0,5.0,77,0.00,,,0.05,,2013-05-24 07:22:00,
2013-05-24 02:32:00,41.0,34.0,30.30,NW,315,2.0,4.0,77,0.00,,,0.05,,2013-05-24 07:32:00,
2013-05-24 02:42:00,41.0,34.0,30.30,NW,315,2.0,4.0,77,0.00,,,0.05,,2013-05-24 07:42:00,
2013-05-24 02:52:00,41.0,34.0,30.30,North,354,2.0,4.0,77,0.00,,,0.05,,2013-05-24 07:52:00,
2013-05-24 03:02:00,41.0,35.0,30.30,NNW,335,2.0,4.0,79,0.00,,,0.05,,2013-05-24 08:02:00,
2013-05-24 03:11:00,41.0,35.0,30.30,NNW,335,2.0,4.0,79,0.00,,,0.05,,2013-05-24 08:11:00,
2013-05-24 03:22:00,40.0,35.0,30.30,NNW,333,3.0,4.0,81,0.00,,,0.05,,2013-05-24 08:22:00,
2013-05-24 03:32:00,39.0,34.0,30.31,NNW,348,2.0,4.0,83,0.00,,,0.05,,2013-05-24 08:32:00,
2013-05-24 03:42:00,39.0,34.0,30.31,NNW,348,2.0,4.0,83,0.00,,,0.05,,2013-05-24 08:42:00,
2013-05-24 03:52:00,39.0,35.0,30.31,NNW,340,2.0,4.0,85,0.00,,,0.05,,2013-05-24 08:52:00,
2013-05-24 04:01:00,39.0,35.0,30.31,NNW,340,2.0,4.0,85,0.00,,,0.05,,2013-05-24 09:01:00,
2013-05-24 04:11:00,39.0,35.0,30.31,NNW,340,2.0,4.0,85,0.00,,,0.05,,2013-05-24 09:11:00,
2013-05-24 04:21:00,39.0,35.0,30.31,NNW,340,2.0,4.0,85,0.00,,,0.05,,2013-05-24 09:21:00,
2013-05-24 04:32:00,39.0,35.0,30.31,NNW,340,2.0,4.0,85,0.00,,,0.05,,2013-05-24 09:32:00,
2013-05-24 05:03:00,38.0,34.0,30.33,NW,325,2.0,4.0,85,0.00,,,0.04,,2013-05-24 10:03:00,
2013-05-24 05:12:00,38.0,34.0,30.33,NW,325,2.0,4.0,85,0.00,,,0.04,,2013-05-24 10:12:00,
2013-05-24 05:22:00,38.0,33.0,30.34,NW,306,2.0,4.0,83,0.00,,,0.02,,2013-05-24 10:22:00,
2013-05-24 05:32:00,38.0,33.0,30.34,NW,306,2.0,4.0,83,0.00,,,0.02,,2013-05-24 10:32:00,
2013-05-24 05:42:00,38.0,33.0,30.34,NW,306,2.0,4.0,83,0.00,,,0.02,,2013-05-24 10:42:00,
2013-05-24 05:52:00,38.0,33.0,30.34,NNW,338,2.0,5.0,83,0.00,,,0.02,,2013-05-24 10:52:00,
2013-05-24 06:02:00,38.0,33.0,30.34,NNW,338,2.0,5.0,83,0.00,,,0.02,,2013-05-24 11:02:00,
2013-05-24 06:12:00,38.0,33.0,30.34,NNW,338,2.0,5.0,83,0.00,,,0.02,,2013-05-24 11:12:00,
2013-05-24 06:22:00,38.0,33.0,30.34,NNW,334,2.0,4.0,82,0.00,,,0.02,,2013-05-24 11:22:00,
2013-05-24 06:32:00,39.0,34.0,30.35,North,352,2.0,4.0,83,0.00,,,0.02,,2013-05-24 11:32:00,
2013-05-24 06:42:00,39.0,34.0,30.35,North,352,2.0,4.0,83,0.00,,,0.02,,2013-05-24 11:42:00,
2013-05-24 06:51:00,39.0,34.0,30.35,North,352,2.0,4.0,83,0.00,,,0.02,,2013-05-24 11:51:00,
2013-05-24 07:02:00,41.0,35.0,30.35,NNE,13,2.0,6.0,79,0.00,,,0.01,,2013-05-24 12:02:00,
2013-05-24 07:11:00,41.0,35.0,30.35,NNE,13,2.0,6.0,79,0.00,,,0.01,,2013-05-24 12:11:00,
2013-05-24 07:21:00,42.0,34.0,30.35,NNE,18,2.0,6.0,74,0.00,,,0.01,,2013-05-24 12:21:00,
2013-05-24 07:32:00,44.0,34.0,30.36,NE,48,2.0,10.0,69,0.00,,,0.01,,2013-05-24 12:32:00,
2013-05-24 07:42:00,44.0,34.0,30.36,NE,48,2.0,10.0,69,0.00,,,0.01,,2013-05-24 12:42:00,
2013-05-24 07:52:00,45.0,34.0,30.37,NE,47,3.0,7.0,65,0.00,,,0.00,,2013-05-24 12:52:00,
2013-05-24 08:02:00,46.0,34.0,30.38,North,4,2.0,5.0,62,0.00,,,0.00,,2013-05-24 13:02:00,
2013-05-24 08:11:00,46.0,34.0,30.38,North,4,2.0,5.0,62,0.00,,,0.00,,2013-05-24 13:11:00,
2013-05-24 08:21:00,46.0,34.0,30.38,North,4,2.0,5.0,62,0.00,,,0.00,,2013-05-24 13:21:00,
2013-05-24 08:32:00,46.0,34.0,30.38,North,4,2.0,5.0,62,0.00,,,0.00,,2013-05-24 13:32:00,
2013-05-24 08:41:00,46.0,34.0,30.38,North,4,2.0,5.0,62,0.00,,,0.00,,2013-05-24 13:41:00,
2013-05-24 08:52:00,51.0,36.0,30.40,NNE,15,0.0,4.0,57,0.00,,,0.00,,2013-05-24 13:52:00,
2013-05-24 09:01:00,51.0,35.0,30.41,North,350,2.0,8.0,54,0.00,,,0.00,,2013-05-24 14:01:00,
2013-05-24 09:11:00,51.0,35.0,30.41,North,350,2.0,8.0,54,0.00,,,0.00,,2013-05-24 14:11:00,
2013-05-24 09:21:00,51.0,35.0,30.41,North,350,2.0,8.0,54,0.00,,,0.00,,2013-05-24 14:21:00,
2013-05-24 09:31:00,51.0,34.0,30.42,North,352,3.0,6.0,52,0.00,,,0.00,,2013-05-24 14:31:00,
2013-05-24 09:42:00,51.0,34.0,30.42,North,352,3.0,6.0,52,0.00,,,0.00,,2013-05-24 14:42:00,
2013-05-24 09:52:00,51.0,34.0,30.42,North,357,3.0,8.0,52,0.00,,,0.00,,2013-05-24 14:52:00,
2013-05-24 10:02:00,51.0,34.0,30.42,NW,316,2.0,8.0,51,0.00,,,0.00,,2013-05-24 15:02:00,
2013-05-24 10:11:00,51.0,34.0,30.42,NW,316,2.0,8.0,51,0.00,,,0.00,,2013-05-24 15:11:00,
2013-05-24 10:21:00,51.0,34.0,30.42,NW,316,2.0,8.0,51,0.00,,,0.00,,2013-05-24 15:21:00,
2013-05-24 10:32:00,53.0,35.0,30.41,NE,42,2.0,5.0,51,0.00,,,0.00,,2013-05-24 15:32:00,
2013-05-24 10:43:00,53.0,35.0,30.41,NE,42,2.0,5.0,51,0.00,,,0.00,,2013-05-24 15:43:00,
2013-05-24 10:52:00,53.0,35.0,30.41,NE,42,2.0,5.0,51,0.00,,,0.00,,2013-05-24 15:52:00,
2013-05-24 11:03:00,54.0,34.0,30.40,North,4,0.0,5.0,46,0.00,,,0.00,,2013-05-24 16:03:00,
2013-05-24 11:12:00,54.0,34.0,30.40,North,4,0.0,5.0,46,0.00,,,0.00,,2013-05-24 16:12:00,
2013-05-24 11:22:00,54.0,33.0,30.40,NNW,336,4.0,8.0,44,0.00,,,0.00,,2013-05-24 16:22:00,
2013-05-24 11:32:00,54.0,33.0,30.40,NNW,336,4.0,8.0,44,0.00,,,0.00,,2013-05-24 16:32:00,
2013-05-24 11:42:00,54.0,33.0,30.40,NNW,336,4.0,8.0,44,0.00,,,0.00,,2013-05-24 16:42:00,
2013-05-24 11:52:00,56.0,35.0,30.40,NW,318,1.0,7.0,45,0.00,,,0.00,,2013-05-24 16:52:00,
2013-05-24 12:02:00,56.0,35.0,30.40,NW,318,1.0,7.0,45,0.00,,,0.00,,2013-05-24 17:02:00,
2013-05-24 12:12:00,56.0,35.0,30.40,NW,318,1.0,7.0,45,0.00,,,0.00,,2013-05-24 17:12:00,
2013-05-24 12:22:00,56.0,35.0,30.40,NW,318,1.0,7.0,45,0.00,,,0.00,,2013-05-24 17:22:00,
2013-05-24 12:32:00,61.0,38.0,30.39,SE,131,1.0,5.0,42,0.00,,,0.00,,2013-05-24 17:32:00,
2013-05-24 12:42:00,61.0,38.0,30.39,SE,131,1.0,5.0,42,0.00,,,0.00,,2013-05-24 17:42:00,
2013-05-24 12:52:00,63.0,38.0,30.39,ENE,75,2.0,4.0,39,0.00,,,0.00,,2013-05-24 17:52:00,
2013-05-24 13:01:00,63.0,38.0,30.38,ESE,118,2.0,4.0,40,0.00,,,0.00,,2013-05-24 18:01:00,
2013-05-24 13:11:00,63.0,38.0,30.38,ESE,118,2.0,4.0,40,0.00,,,0.00,,2013-05-24 18:11:00,
2013-05-24 13:21:00,63.0,36.0,30.37,West,280,1.0,4.0,37,0.00,,,0.00,,2013-05-24 18:21:00,
2013-05-24 13:32:00,64.0,37.0,30.37,ENE,70,1.0,4.0,36,0.00,,,0.00,,2013-05-24 18:32:00,
2013-05-24 13:41:00,64.0,37.0,30.37,ENE,70,1.0,4.0,36,0.00,,,0.00,,2013-05-24 18:41:00,
2013-05-24 13:52:00,64.0,37.0,30.37,ENE,70,1.0,4.0,36,0.00,,,0.00,,2013-05-24 18:52:00,
2013-05-24 14:01:00,66.0,39.0,30.37,East,92,3.0,4.0,37,0.00,,,0.00,,2013-05-24 19:01:00,
2013-05-24 14:11:00,66.0,39.0,30.37,East,92,3.0,4.0,37,0.00,,,0.00,,2013-05-24 19:11:00,
2013-05-24 14:21:00,65.0,41.0,30.37,ENE,76,0.0,5.0,41,0.00,,,0.00,,2013-05-24 19:21:00,
2013-05-24 14:32:00,65.0,41.0,30.37,ENE,76,0.0,5.0,41,0.00,,,0.00,,2013-05-24 19:32:00,
2013-05-24 14:41:00,65.0,41.0,30.37,ENE,76,0.0,5.0,41,0.00,,,0.00,,2013-05-24 19:41:00,
2013-05-24 14:52:00,63.0,43.0,30.36,ENE,78,2.0,8.0,48,0.00,,,0.00,,2013-05-24 19:52:00,
2013-05-24 15:02:00,63.0,40.0,30.36,NE,45,4.0,7.0,43,0.00,,,0.00,,2013-05-24 20:02:00,
2013-05-24 15:11:00,63.0,40.0,30.36,NE,45,4.0,7.0,43,0.00,,,0.00,,2013-05-24 20:11:00,
2013-05-24 15:21:00,63.0,40.0,30.36,NE,45,4.0,7.0,43,0.00,,,0.00,,2013-05-24 20:21:00,
2013-05-24 15:32:00,63.0,42.0,30.35,ENE,66,3.0,6.0,47,0.00,,,0.00,,2013-05-24 20:32:00,
2013-05-24 15:41:00,63.0,42.0,30.35,ENE,66,3.0,6.0,47,0.00,,,0.00,,2013-05-24 20:41:00,
2013-05-24 15:52:00,65.0,41.0,30.36,East,96,3.0,4.0,41,0.00,,,0.00,,2013-05-24 20:52:00,
2013-05-24 16:01:00,63.0,40.0,30.35,ENE,69,2.0,6.0,43,0.00,,,0.00,,2013-05-24 21:01:00,
2013-05-24 16:11:00,63.0,40.0,30.35,ENE,69,2.0,6.0,43,0.00,,,0.00,,2013-05-24 21:11:00,
2013-05-24 16:21:00,63.0,40.0,30.35,ENE,69,2.0,6.0,43,0.00,,,0.00,,2013-05-24 21:21:00,
2013-05-24 16:32:00,63.0,40.0,30.33,ENE,71,2.0,5.0,43,0.00,,,0.00,,2013-05-24 21:32:00,
2013-05-24 16:42:00,63.0,40.0,30.33,ENE,71,2.0,5.0,43,0.00,,,0.00,,2013-05-24 21:42:00,
2013-05-24 16:53:00,63.0,40.0,30.33,NE,56,3.0,6.0,43,0.00,,,0.00,,2013-05-24 21:53:00,
2013-05-24 17:02:00,65.0,39.0,30.32,ENE,61,3.0,6.0,39,0.00,,,0.00,,2013-05-24 22:02:00,
2013-05-24 17:12:00,65.0,39.0,30.32,ENE,61,3.0,6.0,39,0.00,,,0.00,,2013-05-24 22:12:00,
2013-05-24 17:22:00,63.0,40.0,30.31,NE,53,2.0,6.0,42,0.00,,,0.00,,2013-05-24 22:22:00,
2013-05-24 17:33:00,63.0,40.0,30.31,NE,53,2.0,6.0,42,0.00,,,0.00,,2013-05-24 22:33:00,
2013-05-24 17:42:00,63.0,40.0,30.31,NE,53,2.0,6.0,42,0.00,,,0.00,,2013-05-24 22:42:00,
2013-05-24 17:52:00,63.0,39.0,30.32,ENE,65,2.0,5.0,41,0.00,,,0.00,,2013-05-24 22:52:00,
2013-05-24 18:02:00,62.0,39.0,30.32,East,96,2.0,5.0,42,0.00,,,0.00,,2013-05-24 23:02:00,
2013-05-24 18:11:00,62.0,39.0,30.32,East,96,2.0,5.0,42,0.00,,,0.00,,2013-05-24 23:11:00,
2013-05-24 18:22:00,63.0,39.0,30.32,ENE,76,1.0,4.0,41,0.00,,,0.00,,2013-05-24 23:22:00,
2013-05-24 18:32:00,64.0,39.0,30.31,ESE,103,1.0,4.0,39,0.00,,,0.00,,2013-05-24 23:32:00,
2013-05-24 18:42:00,64.0,39.0,30.31,ESE,103,1.0,4.0,39,0.00,,,0.00,,2013-05-24 23:42:00,
2013-05-24 18:52:00,64.0,39.0,30.31,ESE,103,1.0,4.0,39,0.00,,,0.00,,2013-05-24 23:52:00,
2013-05-24 19:01:00,59.0,37.0,30.31,East,80,2.0,4.0,44,0.00,,,0.00,,2013-05-25 00:01:00,
2013-05-24 19:11:00,59.0,37.0,30.31,East,80,2.0,4.0,44,0.00,,,0.00,,2013-05-25 00:11:00,
2013-05-24 19:21:00,55.0,37.0,30.31,NE,40,1.0,3.0,51,0.00,,,0.00,,2013-05-25 00:21:00,
2013-05-24 19:32:00,54.0,37.0,30.31,ENE,64,2.0,4.0,53,0.00,,,0.00,,2013-05-25 00:32:00,
2013-05-24 19:41:00,54.0,37.0,30.31,ENE,64,2.0,4.0,53,0.00,,,0.00,,2013-05-25 00:41:00,
2013-05-24 19:52:00,53.0,36.0,30.32,ENE,66,0.0,4.0,53,0.00,,,0.00,,2013-05-25 00:52:00,
2013-05-24 20:01:00,53.0,37.0,30.32,ENE,65,0.0,3.0,54,0.00,,,0.00,,2013-05-25 01:01:00,
2013-05-24 20:11:00,53.0,37.0,30.32,ENE,65,0.0,3.0,54,0.00,,,0.00,,2013-05-25 01:11:00,
2013-05-24 20:22:00,50.0,36.0,30.32,ESE,113,2.0,4.0,58,0.00,,,0.00,,2013-05-25 01:22:00,
2013-05-24 20:32:00,49.0,36.0,30.34,NE,56,2.0,3.0,60,0.00,,,0.00,,2013-05-25 01:32:00,
2013-05-24 20:42:00,49.0,36.0,30.34,NE,56,2.0,3.0,60,0.00,,,0.00,,2013-05-25 01:42:00,
2013-05-24 20:52:00,47.0,33.0,30.33,NE,48,2.0,4.0,57,0.00,,,0.00,,2013-05-25 01:52:00,
2013-05-24 21:02:00,47.0,33.0,30.33,NE,48,2.0,4.0,57,0.00,,,0.00,,2013-05-25 02:02:00,
2013-05-24 21:11:00,47.0,33.0,30.33,NE,48,2.0,4.0,57,0.00,,,0.00,,2013-05-25 02:11:00,
2013-05-24 21:21:00,46.0,31.0,30.34,NNE,19,1.0,4.0,56,0.00,,,0.00,,2013-05-25 02:21:00,
2013-05-24 21:31:00,46.0,31.0,30.34,NNE,23,0.0,2.0,56,0.00,,,0.00,,2013-05-25 02:31:00,
2013-05-24 21:42:00,46.0,31.0,30.34,NNE,23,0.0,2.0,56,0.00,,,0.00,,2013-05-25 02:42:00,
2013-05-24 21:51:00,45.0,31.0,30.34,NE,34,0.0,2.0,58,0.00,,,0.00,,2013-05-25 02:51:00,
2013-05-24 22:01:00,45.0,32.0,30.35,NNE,24,0.0,2.0,59,0.00,,,0.00,,2013-05-25 03:01:00,
2013-05-24 22:11:00,45.0,32.0,30.35,NNE,24,0.0,2.0,59,0.00,,,0.00,,2013-05-25 03:11:00,
2013-05-24 22:21:00,45.0,32.0,30.35,NNE,24,0.0,2.0,59,0.00,,,0.00,,2013-05-25 03:21:00,
2013-05-24 22:32:00,45.0,32.0,30.35,NNE,24,0.0,2.0,59,0.00,,,0.00,,2013-05-25 03:32:00,
2013-05-24 22:53:00,44.0,34.0,30.35,NNW,341,0.0,2.0,69,0.00,,,0.00,,2013-05-25 03:53:00,
2013-05-24 23:02:00,44.0,34.0,30.35,NNW,341,0.0,2.0,69,0.00,,,0.00,,2013-05-25 04:02:00,
2013-05-24 23:13:00,44.0,34.0,30.35,NNW,341,0.0,2.0,69,0.00,,,0.00,,2013-05-25 04:13:00,
2013-05-24 23:23:00,44.0,38.0,30.35,NW,325,1.0,4.0,78,0.00,,,0.00,,2013-05-25 04:23:00,
2013-05-24 23:33:00,44.0,38.0,30.35,NW,325,1.0,4.0,78,0.00,,,0.00,,2013-05-25 04:33:00,
2013-05-24 23:43:00,44.0,38.0,30.35,NW,325,1.0,4.0,78,0.00,,,0.00,,2013-05-25 04:43:00,
2013-05-24 23:53:00,44.0,38.0,30.35,NW,325,1.0,4.0,78,0.00,,,0.00,,2013-05-25 04:53:00,